This is the latest recevied weather packets stored in our database for station/object LZ1PDB-12. If no packets are shown the sender has not sent any weather packets the latest 10 day(s).
| Time | Temp. | Humidity | Pressure | Rain* | Wind** | Luminosity | Snow |
|---|---|---|---|---|---|---|---|
| 1777957374 | 11.11° C | 49% | 1022.1 hPa | - | - | - | - |
| 1777956473 | 10.56° C | 51% | 1022.1 hPa | - | - | - | - |
| 1777955573 | 11.11° C | 50% | 1022.1 hPa | - | - | - | - |
| 1777954673 | 11.11° C | 50% | 1022.1 hPa | - | - | - | - |
| 1777940265 | 12.22° C | 49% | 1022.1 hPa | - | - | - | - |
| 1777938465 | 12.22° C | 49% | 1022.1 hPa | - | - | - | - |
| 1777934864 | 12.78° C | 48% | 1022.3 hPa | - | - | - | - |
| 1777933964 | 12.78° C | 48% | 1022.4 hPa | - | - | - | - |
| 1777933063 | 12.78° C | 48% | 1022.5 hPa | - | - | - | - |
| 1777932163 | 12.78° C | 48% | 1022.4 hPa | - | - | - | - |
| 1777931263 | 11.67° C | 50% | 1022.5 hPa | - | - | - | - |
| 1777930363 | 12.22° C | 49% | 1022.4 hPa | - | - | - | - |
| 1777929463 | 12.22° C | 50% | 1022.3 hPa | - | - | - | - |
| 1777928563 | 12.78° C | 48% | 1022.3 hPa | - | - | - | - |
| 1777924961 | 13.89° C | 48% | 1022.4 hPa | - | - | - | - |
| 1777924060 | 13.89° C | 47% | 1022.5 hPa | - | - | - | - |
| 1777923160 | 13.89° C | 47% | 1022.5 hPa | - | - | - | - |
| 1777919559 | 15° C | 47% | 1022 hPa | - | - | - | - |
| 1777918659 | 15° C | 46% | 1021.8 hPa | - | - | - | - |
| 1777917759 | 15.56° C | 46% | 1021.8 hPa | - | - | - | - |
| 1777916859 | 15.56° C | 45% | 1021.9 hPa | - | - | - | - |
| 1777915958 | 16.11° C | 45% | 1021.8 hPa | - | - | - | - |
| 1777915058 | 16.11° C | 44% | 1021.8 hPa | - | - | - | - |
| 1777914158 | 16.67° C | 42% | 1021.7 hPa | - | - | - | - |
| 1777913258 | 17.22° C | 41% | 1021.7 hPa | - | - | - | - |
* Rain since midnight (hover to see other rain measurements)
** Current wind speed in m/s (hover to see current wind gust speed)